7 * 24
多渠道服务支持
NINGXIA-1 1 是由中国宁夏回族自治区主导研制的一颗遥感卫星,主要用于国土资源调查、环境监测、农业评估等领域。该卫星具备高分辨率成像能力,能够提供清晰的地表图像,支持地方经济发展与生态保护。它于2022年成功发射,是宁夏推进航天科技应用、提升区域信息化水平的重要举措,标志着宁夏在航天遥感技术应用方面迈出了重要一步。
中国
(CN)
| 数据来源 | 国际轨道数据 |
| 星历时间: | 2025-10-28T23:52:27+0800 17小时前 查看轨道信息 |
| 半长轴: | 7265.054km |
| 偏心率: | 0.0010944 |
| 轨道倾角: | 45.004° |
| 近地点辐角 | 141.807° |
| 升交点赤经 | 134.463° |
| 平近点角 | 218.354° |
| 近地点: | 878.968km |
| 远地点: | 894.87km |
| 周期: | 102.711分钟 |
| 每日圈数: | 14.019889 |